TimeCDT,TemperatureF,Dew PointF,Humidity,Sea Level PressureIn,VisibilityMPH,Wind Direction,Wind SpeedMPH,Gust SpeedMPH,PrecipitationIn,Events,Conditions,WindDirDegrees,DateUTC
12:14 AM,35.6,30.2,81,30.19,10.0,SSE,10.4,-,N/A,,Clear,160,2012-10-30 05:14:00
12:34 AM,35.6,30.2,81,30.19,10.0,South,9.2,-,N/A,,Clear,170,2012-10-30 05:34:00
12:53 AM,33.8,30.2,87,30.19,10.0,SSE,9.2,-,N/A,,Clear,160,2012-10-30 05:53:00
1:14 AM,33.8,30.2,87,30.19,10.0,SSE,9.2,-,N/A,,Clear,160,2012-10-30 06:14:00
1:34 AM,32.0,28.4,87,30.19,10.0,SSE,8.1,-,N/A,,Clear,150,2012-10-30 06:34:00
1:54 AM,32.0,28.4,87,30.19,10.0,SSE,6.9,-,N/A,,Clear,160,2012-10-30 06:54:00
2:34 AM,30.2,28.4,93,30.19,10.0,SSE,6.9,-,N/A,,Clear,150,2012-10-30 07:34:00
2:54 AM,30.2,28.4,93,30.19,10.0,SSE,8.1,-,N/A,,Clear,150,2012-10-30 07:54:00
3:14 AM,30.2,28.4,93,30.19,10.0,SSE,9.2,-,N/A,,Clear,150,2012-10-30 08:14:00
3:54 AM,32.0,28.4,87,30.18,10.0,SSE,9.2,-,N/A,,Mostly Cloudy,150,2012-10-30 08:54:00
4:14 AM,32.0,28.4,87,30.18,10.0,SSE,9.2,-,N/A,,Scattered Clouds,150,2012-10-30 09:14:00
4:34 AM,32.0,28.4,87,30.18,10.0,SSE,11.5,-,N/A,,Clear,150,2012-10-30 09:34:00
4:54 AM,33.8,28.4,81,30.19,10.0,SSE,8.1,-,N/A,,Clear,160,2012-10-30 09:54:00
5:14 AM,33.8,28.4,81,30.19,10.0,South,9.2,-,N/A,,Clear,170,2012-10-30 10:14:00
5:34 AM,33.8,28.4,81,30.19,10.0,SSE,8.1,-,N/A,,Scattered Clouds,160,2012-10-30 10:34:00
5:54 AM,33.8,28.4,81,30.19,10.0,SSE,6.9,-,N/A,,Scattered Clouds,160,2012-10-30 10:54:00
6:14 AM,33.8,28.4,81,30.19,10.0,SSE,6.9,-,N/A,,Mostly Cloudy,160,2012-10-30 11:14:00
6:34 AM,33.8,28.4,81,30.19,10.0,SSE,8.1,-,N/A,,Scattered Clouds,160,2012-10-30 11:34:00
6:54 AM,35.6,28.4,75,30.18,10.0,South,8.1,-,N/A,,Scattered Clouds,170,2012-10-30 11:54:00
7:14 AM,35.6,28.4,75,30.18,10.0,South,8.1,-,N/A,,Overcast,170,2012-10-30 12:14:00
7:34 AM,35.6,28.4,75,30.18,10.0,South,8.1,-,N/A,,Overcast,170,2012-10-30 12:34:00
7:54 AM,35.6,28.4,75,30.18,10.0,SSE,8.1,-,N/A,,Overcast,160,2012-10-30 12:54:00
8:13 AM,35.6,28.4,75,30.18,10.0,South,8.1,-,N/A,,Overcast,170,2012-10-30 13:13:00
8:34 AM,35.6,28.4,75,30.18,10.0,SSE,8.1,-,N/A,,Overcast,160,2012-10-30 13:34:00
8:54 AM,35.6,28.4,75,30.18,10.0,SSE,9.2,-,N/A,,Overcast,150,2012-10-30 13:54:00
9:14 AM,35.6,28.4,75,30.18,10.0,SSE,9.2,-,N/A,,Overcast,150,2012-10-30 14:14:00
9:34 AM,35.6,28.4,75,30.18,10.0,SSE,9.2,-,N/A,,Overcast,150,2012-10-30 14:34:00
9:54 AM,37.4,28.4,70,30.18,10.0,SSE,10.4,-,N/A,,Overcast,150,2012-10-30 14:54:00
10:14 AM,37.4,28.4,70,30.18,10.0,SSE,9.2,-,N/A,,Overcast,160,2012-10-30 15:14:00
10:33 AM,39.2,28.4,65,30.17,10.0,SSE,9.2,-,N/A,,Overcast,160,2012-10-30 15:33:00
10:54 AM,41.0,26.6,57,30.18,10.0,SSE,11.5,-,N/A,,Overcast,160,2012-10-30 15:54:00
11:14 AM,41.0,26.6,57,30.18,10.0,SSE,9.2,-,N/A,,Overcast,150,2012-10-30 16:14:00
11:34 AM,42.8,26.6,53,30.18,10.0,SSE,12.7,-,N/A,,Overcast,150,2012-10-30 16:34:00
11:54 AM,42.8,26.6,53,30.18,10.0,SSE,9.2,-,N/A,,Overcast,160,2012-10-30 16:54:00
12:14 PM,42.8,26.6,53,30.18,10.0,SSE,11.5,-,N/A,,Overcast,150,2012-10-30 17:14:00
12:34 PM,42.8,28.4,57,30.18,10.0,South,12.7,-,N/A,,Overcast,170,2012-10-30 17:34:00
12:54 PM,44.6,28.4,53,30.17,10.0,SSE,11.5,-,N/A,,Overcast,160,2012-10-30 17:54:00
1:14 PM,42.8,28.4,57,30.17,10.0,SSE,10.4,-,N/A,,Overcast,160,2012-10-30 18:14:00
1:34 PM,42.8,28.4,57,30.16,10.0,SSE,10.4,-,N/A,,Overcast,150,2012-10-30 18:34:00
1:54 PM,44.6,30.2,57,30.15,10.0,SSE,10.4,-,N/A,,Overcast,160,2012-10-30 18:54:00
2:14 PM,44.6,28.4,53,30.15,10.0,South,8.1,-,N/A,,Overcast,170,2012-10-30 19:14:00
2:34 PM,44.6,28.4,53,30.14,10.0,SSE,6.9,-,N/A,,Overcast,150,2012-10-30 19:34:00
2:54 PM,44.6,28.4,53,30.14,10.0,SSE,6.9,-,N/A,,Overcast,150,2012-10-30 19:54:00
3:14 PM,44.6,28.4,53,30.14,10.0,SSE,5.8,-,N/A,,Overcast,160,2012-10-30 20:14:00
3:34 PM,44.6,28.4,53,30.13,10.0,SSE,5.8,-,N/A,,Overcast,160,2012-10-30 20:34:00
3:54 PM,44.6,28.4,53,30.13,10.0,SSE,5.8,-,N/A,,Overcast,160,2012-10-30 20:54:00
4:14 PM,44.6,28.4,53,30.13,10.0,SSE,3.5,-,N/A,,Overcast,150,2012-10-30 21:14:00
4:34 PM,44.6,28.4,53,30.12,10.0,SSE,4.6,-,N/A,,Overcast,150,2012-10-30 21:34:00
4:54 PM,46.4,30.2,53,30.13,10.0,Calm,Calm,-,N/A,,Overcast,0,2012-10-30 21:54:00
5:14 PM,44.6,28.4,53,30.12,10.0,Calm,Calm,-,N/A,,Overcast,0,2012-10-30 22:14:00
5:34 PM,44.6,28.4,53,30.12,10.0,ESE,4.6,-,N/A,,Overcast,110,2012-10-30 22:34:00
5:54 PM,44.6,30.2,57,30.12,10.0,Calm,Calm,-,N/A,,Overcast,0,2012-10-30 22:54:00
6:14 PM,44.6,30.2,57,30.11,10.0,Calm,Calm,-,N/A,,Overcast,0,2012-10-30 23:14:00
6:34 PM,44.6,30.2,57,30.11,10.0,Calm,Calm,-,N/A,,Overcast,0,2012-10-30 23:34:00
6:54 PM,44.6,30.2,57,30.11,10.0,Calm,Calm,-,N/A,,Overcast,0,2012-10-30 23:54:00
7:14 PM,44.6,30.2,57,30.11,10.0,Calm,Calm,-,N/A,,Overcast,0,2012-10-31 00:14:00
7:34 PM,42.8,32.0,66,30.10,10.0,Calm,Calm,-,N/A,,Overcast,0,2012-10-31 00:34:00
7:54 PM,42.8,33.8,70,30.10,10.0,Calm,Calm,-,N/A,,Overcast,0,2012-10-31 00:54:00
8:14 PM,42.8,30.2,61,30.11,10.0,Calm,Calm,-,N/A,,Overcast,0,2012-10-31 01:14:00
8:33 PM,42.8,32.0,66,30.11,10.0,Calm,Calm,-,N/A,,Overcast,0,2012-10-31 01:33:00
8:54 PM,42.8,33.8,70,30.10,10.0,Calm,Calm,-,N/A,,Overcast,0,2012-10-31 01:54:00
9:14 PM,42.8,33.8,70,30.09,10.0,Calm,Calm,-,N/A,,Overcast,0,2012-10-31 02:14:00
9:33 PM,42.8,32.0,66,30.09,10.0,Calm,Calm,-,N/A,,Overcast,0,2012-10-31 02:33:00
9:54 PM,41.0,33.8,76,30.08,10.0,ESE,3.5,-,N/A,,Overcast,110,2012-10-31 02:54:00
10:14 PM,39.2,32.0,75,30.09,10.0,Calm,Calm,-,N/A,,Scattered Clouds,0,2012-10-31 03:14:00
10:33 PM,39.2,30.2,70,30.09,10.0,Calm,Calm,-,N/A,,Clear,0,2012-10-31 03:33:00
10:54 PM,41.0,30.2,65,30.09,10.0,Calm,Calm,-,N/A,,Clear,0,2012-10-31 03:54:00
11:14 PM,39.2,30.2,70,30.09,10.0,Calm,Calm,-,N/A,,Clear,0,2012-10-31 04:14:00
11:33 PM,39.2,30.2,70,30.10,10.0,Calm,Calm,-,N/A,,Scattered Clouds,0,2012-10-31 04:33:00
11:54 PM,37.4,30.2,75,30.10,10.0,Calm,Calm,-,N/A,,Mostly Cloudy,0,2012-10-31 04:54:00